• In Czech Republic
  • List of Countries
  • For 7 days
  • Water Temperature
  • Satellite Maps
  • Weather Map
  • Weather Widgets
  • user-avatar
    Login

    Hourly Weather Yulara

    Today, 13 December, Wednesday

    Time Temperature Precipitation Wind Pressure Humidity
    00:00 +35°C° 0 mm 3 mps 715 mmHg 21%
    01:00 +34°C° 0 mm 3 mps 714 mmHg 23%
    02:00 +32°C° 0 mm 2 mps 714 mmHg 24%
    03:00 +31°C° 0 mm 2 mps 714 mmHg 27%
    04:00 +31°C° 0 mm 2 mps 714 mmHg 28%
    05:00 +31°C° 0 mm 2 mps 714 mmHg 29%
    06:00 +31°C° 0 mm 1 mps 714 mmHg 30%
    07:00 +33°C° 0 mm 1 mps 714 mmHg 27%
    08:00 +36°C° 0 mm 2 mps 715 mmHg 23%
    09:00 +36°C° 0 mm 1 mps 715 mmHg 21%
    10:00 +38°C° 0 mm 2 mps 715 mmHg 20%
    11:00 +40°C° 0 mm 3 mps 715 mmHg 18%
    12:00 +42°C° 0 mm 4 mps 715 mmHg 17%
    13:00 +42°C° 0 mm 4 mps 714 mmHg 17%
    14:00 +42°C° 0 mm 5 mps 714 mmHg 17%
    15:00 +40°C° 0 mm 5 mps 713 mmHg 19%
    16:00 +40°C° 0 mm 5 mps 713 mmHg 20%
    17:00 +40°C° 0 mm 4 mps 714 mmHg 20%
    18:00 +38°C° 0 mm 4 mps 714 mmHg 20%
    19:00 +37°C° 0 mm 3 mps 714 mmHg 22%
    20:00 +36°C° 0 mm 3 mps 714 mmHg 23%
    21:00 +35°C° 0 mm 3 mps 714 mmHg 25%
    22:00 +34°C° 0 mm 3 mps 714 mmHg 26%
    23:00 +34°C° 0 mm 3 mps 714 mmHg 27%

    Tomorrow, 14 December, Thursday

    Time Temperature Precipitation Wind Pressure Humidity
    00:00 +33°C° 0 mm 3 mps 713 mmHg 28%
    01:00 +32°C° 0.2 mm 4 mps 713 mmHg 30%
    02:00 +32°C° 0.2 mm 4 mps 713 mmHg 32%
    03:00 +30°C° 0.2 mm 5 mps 713 mmHg 33%
    04:00 +30°C° 0.2 mm 4 mps 714 mmHg 36%
    05:00 +30°C° 0.2 mm 4 mps 714 mmHg 39%
    06:00 +29°C° 0.2 mm 4 mps 715 mmHg 42%
    07:00 +30°C° 0.1 mm 4 mps 715 mmHg 40%
    08:00 +32°C° 0.1 mm 4 mps 716 mmHg 38%
    09:00 +33°C° 0.1 mm 3 mps 716 mmHg 37%
    10:00 +35°C° 0 mm 3 mps 716 mmHg 33%
    11:00 +37°C° 0 mm 3 mps 715 mmHg 29%
    12:00 +38°C° 0 mm 3 mps 715 mmHg 25%
    13:00 +39°C° 0 mm 3 mps 714 mmHg 23%
    14:00 +39°C° 0 mm 2 mps 714 mmHg 22%
    15:00 +39°C° 0 mm 2 mps 713 mmHg 20%
    16:00 +39°C° 0 mm 3 mps 713 mmHg 22%
    17:00 +40°C° 0 mm 4 mps 713 mmHg 23%
    18:00 +39°C° 0 mm 5 mps 713 mmHg 24%
    19:00 +38°C° 0 mm 6 mps 714 mmHg 27%
    20:00 +35°C° 0 mm 7 mps 714 mmHg 31%
    21:00 +34°C° 0 mm 8 mps 714 mmHg 35%
    22:00 +33°C° 0 mm 8 mps 714 mmHg 36%
    23:00 +33°C° 0 mm 8 mps 715 mmHg 38%

    Day after tomorrow, 15 December, Friday

    Time Temperature Precipitation Wind Pressure Humidity
    00:00 +32°C° 0 mm 7 mps 715 mmHg 40%
    01:00 +30°C° 0 mm 7 mps 715 mmHg 41%
    02:00 +30°C° 0 mm 6 mps 714 mmHg 43%
    03:00 +29°C° 0 mm 5 mps 714 mmHg 44%
    04:00 +29°C° 0 mm 5 mps 715 mmHg 43%
    05:00 +29°C° 0 mm 5 mps 715 mmHg 43%
    06:00 +28°C° 0 mm 5 mps 715 mmHg 42%
    07:00 +30°C° 0 mm 5 mps 716 mmHg 39%
    08:00 +32°C° 0 mm 6 mps 716 mmHg 35%
    09:00 +34°C° 0 mm 6 mps 716 mmHg 31%
    10:00 +35°C° 0 mm 5 mps 716 mmHg 29%
    11:00 +37°C° 0 mm 5 mps 715 mmHg 26%
    12:00 +38°C° 0 mm 4 mps 715 mmHg 24%
    13:00 +39°C° 0 mm 3 mps 714 mmHg 22%
    14:00 +39°C° 0 mm 2 mps 714 mmHg 21%
    15:00 +39°C° 0 mm 1 mps 713 mmHg 19%
    16:00 +39°C° 0 mm 1 mps 713 mmHg 19%
    17:00 +39°C° 0 mm 2 mps 713 mmHg 20%
    18:00 +39°C° 0 mm 3 mps 713 mmHg 20%
    19:00 +38°C° 0 mm 3 mps 714 mmHg 22%
    20:00 +37°C° 0 mm 3 mps 714 mmHg 23%
    21:00 +36°C° 0 mm 3 mps 714 mmHg 25%
    22:00 +36°C° 0 mm 3 mps 714 mmHg 26%
    23:00 +35°C° 0 mm 3 mps 714 mmHg 27%

    16 December, Saturday

    Time Temperature Precipitation Wind Pressure Humidity
    00:00 +35°C° 0 mm 4 mps 714 mmHg 27%
    01:00 +34°C° 0 mm 3 mps 714 mmHg 29%
    02:00 +33°C° 0 mm 3 mps 714 mmHg 30%
    03:00 +31°C° 0 mm 2 mps 714 mmHg 31%
    04:00 +31°C° 0 mm 3 mps 715 mmHg 31%
    05:00 +31°C° 0 mm 3 mps 715 mmHg 31%
    06:00 +32°C° 0 mm 4 mps 716 mmHg 30%
    07:00 +33°C° 0 mm 5 mps 716 mmHg 28%
    08:00 +35°C° 0 mm 5 mps 717 mmHg 26%
    09:00 +36°C° 0 mm 6 mps 717 mmHg 24%
    10:00 +39°C° 0 mm 6 mps 717 mmHg 22%
    11:00 +40°C° 0 mm 6 mps 716 mmHg 20%
    12:00 +42°C° 0 mm 6 mps 716 mmHg 18%
    13:00 +42°C° 0 mm 5 mps 715 mmHg 17%
    14:00 +43°C° 0 mm 5 mps 714 mmHg 16%
    15:00 +44°C° 0 mm 4 mps 714 mmHg 15%
    16:00 +43°C° 0 mm 4 mps 714 mmHg 16%
    17:00 +43°C° 0 mm 4 mps 714 mmHg 17%
    18:00 +42°C° 0 mm 4 mps 714 mmHg 17%
    19:00 +41°C° 0 mm 4 mps 714 mmHg 18%
    20:00 +41°C° 0 mm 4 mps 714 mmHg 19%
    21:00 +39°C° 0 mm 3 mps 714 mmHg 20%
    22:00 +38°C° 0 mm 3 mps 714 mmHg 22%
    23:00 +37°C° 0 mm 4 mps 714 mmHg 24%

    17 December, Sunday

    Time Temperature Precipitation Wind Pressure Humidity
    00:00 +36°C° 0 mm 4 mps 714 mmHg 26%
    01:00 +36°C° 0 mm 4 mps 714 mmHg 27%
    02:00 +35°C° 0 mm 4 mps 713 mmHg 29%
    03:00 +35°C° 0 mm 3 mps 713 mmHg 30%
    04:00 +34°C° 0 mm 4 mps 713 mmHg 32%
    05:00 +34°C° 0 mm 4 mps 713 mmHg 33%
    06:00 +34°C° 0 mm 4 mps 714 mmHg 35%
    07:00 +36°C° 0 mm 5 mps 714 mmHg 32%
    08:00 +38°C° 0 mm 6 mps 714 mmHg 29%
    09:00 +40°C° 0 mm 6 mps 715 mmHg 25%
    10:00 +41°C° 0 mm 6 mps 714 mmHg 23%
    11:00 +44°C° 0 mm 7 mps 714 mmHg 20%
    12:00 +45°C° 0 mm 7 mps 714 mmHg 17%
    13:00 +45°C° 0 mm 7 mps 713 mmHg 17%
    14:00 +45°C° 0 mm 7 mps 712 mmHg 17%
    15:00 +45°C° 0 mm 7 mps 712 mmHg 17%
    16:00 +44°C° 0 mm 7 mps 712 mmHg 18%
    17:00 +44°C° 0 mm 7 mps 712 mmHg 18%
    18:00 +43°C° 0 mm 7 mps 712 mmHg 19%
    19:00 +41°C° 0.1 mm 6 mps 712 mmHg 21%
    20:00 +40°C° 0.1 mm 5 mps 712 mmHg 23%
    21:00 +40°C° 0.1 mm 4 mps 712 mmHg 25%
    22:00 +38°C° 0 mm 4 mps 712 mmHg 26%
    23:00 +39°C° 0 mm 5 mps 712 mmHg 27%

    18 December, Monday

    Time Temperature Precipitation Wind Pressure Humidity
    00:00 +37°C° 0 mm 5 mps 712 mmHg 28%
    01:00 +36°C° 0.2 mm 5 mps 711 mmHg 31%
    02:00 +35°C° 0.2 mm 6 mps 711 mmHg 33%
    03:00 +35°C° 0.2 mm 6 mps 711 mmHg 35%
    04:00 +34°C° 0 mm 7 mps 711 mmHg 39%
    05:00 +33°C° 0 mm 7 mps 711 mmHg 42%
    06:00 +33°C° 0 mm 7 mps 711 mmHg 46%
    07:00 +35°C° 0 mm 8 mps 712 mmHg 40%
    08:00 +37°C° 0 mm 9 mps 712 mmHg 34%
    09:00 +39°C° 0 mm 9 mps 712 mmHg 28%
    10:00 +42°C° 0 mm 10 mps 712 mmHg 26%
    11:00 +43°C° 0 mm 10 mps 712 mmHg 23%
    12:00 +44°C° 0 mm 10 mps 711 mmHg 20%
    13:00 +44°C° 0 mm 10 mps 711 mmHg 20%
    14:00 +44°C° 0 mm 10 mps 710 mmHg 20%
    15:00 +44°C° 0 mm 9 mps 710 mmHg 20%
    16:00 +44°C° 0 mm 9 mps 710 mmHg 19%
    17:00 +44°C° 0 mm 8 mps 710 mmHg 19%
    18:00 +44°C° 0 mm 7 mps 710 mmHg 18%
    19:00 +43°C° 0 mm 7 mps 710 mmHg 19%
    20:00 +41°C° 0 mm 6 mps 711 mmHg 19%
    21:00 +40°C° 0 mm 5 mps 711 mmHg 19%
    22:00 +39°C° 0 mm 5 mps 711 mmHg 19%
    23:00 +36°C° 0 mm 6 mps 711 mmHg 18%
    Show more